Погода Ефимовская

Погода Ефимовская : погода сейчас, прогноз погоды и архив. Всё, что Вы хотите узнать о погоде Ефимовская!

Поиск расширенной информации на нашем сайте:

Другие новости

Новости СМИ2

Главная страница сайта

Новости сайта

02.10.2013

Напоминаем, что на нашем новом сайте вы можете получить высокодетализированные прогнозы погоды по пунктам России, СНГ и мира (включающие важные для авиации метеовеличины, такие как направление и скорость ветра, видимость, явления погоды, количество и форма облачности, нижняя и верхняя граница облачности), а также ознакомиться с разнообразными материалами по авиационной метеорологии и подборкой полезных ссылок на эту тему.

Сайт Метеоцентр.Азия посвящён разработке технологий оптимизации авиаметеорологического обслуживания, включая проектирование и перспективное создание нескольких автоматизированных авиаметеорологических систем:
- система выпуска высокодетальных прогностических карт явлений погоды для нижнего воздушного пространства по России и ближнему зарубежью;
- система верификации прогнозов TAF (выпускаемых синоптиками официальных АМСГ РФ и ближнего зарубежья) и AUTOTAF (выпускаемых сайтом Метеоцентр.Азия) - выявление ошибок, онлайн-сопоставление с фактической погодой METAR, автоматическое внесение коррективов в прогнозы при резком отклонении фактической погоды от прогноза, подсчёт оправдываемости прогнозов по элементам и в целом;
- система обработки, анализа и отображения авиаметеорологической информации для применения провайдерами метеорологической информации.

Рекомендуем: Купить квадрокоптер dji phantom.

Погода Ефимовская - сегодня

Время (UTC), дата Ветер
(°,м/с) 
Видим.   Явления Облачность Т
(°С)
Тd
(°С)
f(%) Тe
(°С)
Pmin
(гПа)
dP
(гПа)
Po
(мм)
O2
(г/м3)
Тmin Tmax R s Состояние
почвы
03 18.01.17 260 (З) н/о    н/о 
-6.7 -7.8 92 -8  1030.3  -1.4  756  313  -13.7         
06 18.01.17 240 (ЮЗ) 20000 м    10/10 300 м 
[St]
-7.9 -8.9 93 -9  1029.1  -1.2  755  314  -13.6    0.0  52  равномерный
сухой снег
100% 
09 18.01.17 240 (ЮЗ) н/о    н/о 
-6.1 -7.3 91 -8  1027.8  -1.1  754  311           
12 18.01.17 270 (З) н/о    н/о 
-5 -5.6 96 -7  1027  -0.7  753  310           
15 18.01.17 260 (З) н/о    н/о 
-4.6 -5.2 96 -6  1026.6  -0.4  753  309           
18 18.01.17 240 (ЮЗ) 20000 м    10/10 400 м 
[St]
-3.9 -4.1 98 -5  1025.3  -1.2  752  308    -3.9  0.2     
21 18.01.17 230 (ЮЗ) н/о    н/о 
-3.3 -3.8 96 -4  1023  -2.2  750  307           
00 19.01.17 240 (ЮЗ) н/о    н/о 
-2.7 -3.1 97 -5  1020.6  -2.3  749  305           
03 19.01.17 250 (З) н/о    н/о 
-2.5 -2.8 98 -5  1017.8  -2.7  747  304  -4.6         
06 19.01.17 250 (З) 4000 м  слаб. снег  10/10 270 м 
[Frnb|Ns]
-1.8 -2.3 96 -4  1015.1  -2.5  745  302  -3.9    53  равномерный
сухой снег
100% 
09 19.01.17 260 (З) н/о    н/о 
-0.9 -1.2 98 -3  1014.1  -0.9  744  301           
12 19.01.17 270 (З) н/о    н/о 
-0.1 -0.7 96 -2  1012.4  -1.7  743  299           
15 19.01.17 260 (З) н/о    н/о 
-0.3 -0.5 99 -2  1009.6  -2.7  741  299           
18 19.01.17 270 (З) 5-11{11}  20000 м    10/10 300 м 
[St]
+0.4 -0.1 96 -3  1006.5  -2.9  739  297    +0.4     
21 19.01.17 280 (З) 6-13{14}  н/о    н/о 
+1.1 -0.1 92 -2  1004.1  -2.3  737  296           
00 20.01.17 290 (З) 6-12{16}  н/о    н/о 
+0.6 -2.5 80 -3  1005.3  1.2  738  297           
03 20.01.17 300 (СЗ) 5-10{14}  н/о    н/о 
-1.8 -6.6 70 -5  1007.7  2.2  739  301  -1.8         
06 20.01.17 310 (СЗ) 5-10{18}  20000 м  позёмок  ясно 
-4.5 -10.8 61 -8  1010.3  2.3  741  305  -4.5    0.0  53  равномерный
сухой снег
100% 
09 20.01.17 300 (СЗ) 4{10}  н/о    н/о 
-3.8 -10.1 62 -7  1012.5  2.1  743  304           
12 20.01.17 290 (З) 4{10}  н/о    н/о 
-3.6 -9.5 64 -7  1012.9  0.5  743  304           
15 20.01.17 250 (З) н/о    н/о 
-6.9 -10.7 74 -7  1011.8  -1.4  742  308           
18 20.01.17 270 (З) 20000 м    ясно 
-5.9 -9.3 77 -8  1010.2  -1.5  741  306    -3.2       
21 20.01.17 290 (З) н/о    н/о 
-4.3 -6.6 84 -7  1008.3  -1.7  740  303           
00 21.01.17 290 (З) н/о    н/о 
-3.5 -5.4 87 -6  1007.7  -0.5  739  302           
03 21.01.17 300 (СЗ) 2{10}  н/о    н/о 
-4.8 -6.7 87 -6  1008.4  0.5  740  304  -7.2         
Время (UTC), дата Ветер
(°,м/с) 
Видим.   Явления Облачность Т
(°С)
Тd
(°С)
f(%) Тe
(°С)
Pmin
(гПа)
dP
(гПа)
Po
(мм)
O2
(г/м3)
Тmin Tmax R s Состояние
почвы

Для получения пояснительной информации подведите курсор к названию столбца.

ПОГОДА Ефимовская - архив

Всё, что Вы хотите узнать о погоде Ефимовская - удобно и подробно!

Выберите нужную дату (начиная с 1 января 2015* года) и нажмите кнопку "Найти".
Будут отображены архивные сводки погоды по пункту Ефимовская, начиная с указанной даты.


Отображать данные в формате CSV (для использования в таблицах Excel)


Внимание! Наш архив погоды предназначен исключительно для личного некоммерческого использования в познавательных целях. Если Вам необходимы официальные справки о состоянии погоды (для производственных, юридических, коммерческих и т.п. целей), обращайтесь в органы Росгидромета.

*Примечание: данная дата относится к архиву по метеостанциям СССР (Россия, СНГ, Балтия).
Архив по метеостанциям Зарубежной Европы и Азии (кроме Китая) хранится 10 дней, по другим регионам земного шара (Китай, Африка, Америка, Австралия, Океания) - 1 день.

Ефимовская - район местоположения метеостанции


Название, широта, долгота, высота метеостанции:
Ефимовская 59.5°ш. 34.7°д. 176 м над ур. моря [Российская Федерация]

Дополнительная информация

В oтличие oт бoльшинства пoгoдных сайтoв мы публикуем пoдрoбную метеoинфoрмацию в детальнoм прoфессиoнальнoм фoрмате.

Характеристики температуры и влажнoсти вoздуха измеряются на высoте 2 м в тени вдали oт зданий и деревьев.
Скoрoсть ветра измеряется на высoте 10 м (на урoвне рoста челoвека скoрoсть ветра ниже в 1.5-2 раза). Если метеoстанция нахoдится в гoрoде или в лесу, тo скoрoсть ветра занижена на 2-4 м/с пo сравнению с oткрытым местoм. Скoрoсть ветра над акватoриями крупных рек и oзёр, а также на вершинах хoлмoв на 2-5 м/с выше, чем в oбычных услoвиях.
Атмoсфернoе давление в разных тoчках местнoсти мoжет значительнo oтличаться oт давления на метеoстанции, в зависимoсти oт услoвий рельефа (при пoдъёме на 10 м давление пoнижается примернo на 1 мм рт.ст.).